Regional Weather Roundup
Issued by NWS

Home | Current Version | Previous Version | Text Only | Print | Product List | Glossary Off
Versions: 1 2 3 4 5 6 7 8 9 10 11 12 13 14 15 16 17 18 19 20 21 22 23 24 25 26 27

000
ASUS45 KCYS 180010
RWRWY

WYOMING REGIONAL WEATHER ROUNDUP
NATIONAL WEATHER SERVICE CHEYENNE WY
600 PM MDT THU APR 17 2014

NOTE:  "FAIR" INDICATES FEW OR NO CLOUDS BELOW 12,000 FEET
WITH NO SIGNIFICANT WEATHER AND/OR OBSTRUCTIONS TO VISIBILITY.

WYZ001-180100-
YELLOWSTONE NATIONAL PARK

CITY           SKY/WX    TMP DP  RH WIND       PRES   REMARKS
LK YELLOWSTONE   N/A     43  21  41 VRB3      29.99F
6HR MIN TEMP:  40; 6HR MAX TEMP:  47;

W YELLOWSTONE  NOT AVBL

$$
WYZ002>013-054>058-071-098>099-180100-
NORTHERN WYOMING

CITY           SKY/WX    TMP DP  RH WIND       PRES   REMARKS
JACKSON        SUNNY     54  19  26 S14G21    29.96F
CODY           MOSUNNY   59  21  23 W12G20    29.84S
GREYBULL       SUNNY     63  23  21 S15       29.83S
6HR MIN TEMP:  53; 6HR MAX TEMP:  63;

WORLAND        SUNNY     62  22  21 E10       29.83F
6HR MIN TEMP:  56; 6HR MAX TEMP:  64;

SHERIDAN       MOSUNNY   61  29  29 SE9       29.85F
6HR MIN TEMP:  50; 6HR MAX TEMP:  61;

BUFFALO        PTSUNNY   59  22  24 NE6       29.88F
6HR MIN TEMP:  50; 6HR MAX TEMP:  60;

GILLETTE       MOSUNNY   59  22  24 SW8       29.87F
6HR MIN TEMP:  50; 6HR MAX TEMP:  61;

HULETT         FAIR      54  32  43 SW8       29.92
NEWCASTLE      FAIR      54  32  43 SE13G20   29.94

$$
WYZ014>020-022>026-101>103-180100-
CENTRAL WYOMING

CITY           SKY/WX    TMP DP  RH WIND       PRES   REMARKS
BIG PINEY      MOSUNNY   57  17  21 W7        29.99F
6HR MIN TEMP:  46; 6HR MAX TEMP:  57;

PINEDALE       PTCLDY    50  23  34 N9        30.00S
DUBOIS         FAIR      50  18  27 W16G23    29.96S
LANDER         CLOUDY    61  25  25 VRB3      29.87F
6HR MIN TEMP:  48; 6HR MAX TEMP:  62;

RIVERTON       PTSUNNY   60  17  18 CALM      29.89F
6HR MIN TEMP:  48; 6HR MAX TEMP:  61;

CASPER         PTSUNNY   62  22  21 W13       29.89F
6HR MIN TEMP:  52; 6HR MAX TEMP:  63;

DOUGLAS        SUNNY     56  32  40 SE15      29.93F
6HR MIN TEMP:  49; 6HR MAX TEMP:  59;


$$
WYZ021-027>030-104>119-180100-
SOUTHERN WYOMING

CITY           SKY/WX    TMP DP  RH WIND       PRES   REMARKS
EVANSTON       SUNNY     59  23  25 W15G25    30.00S
6HR MIN TEMP:  50; 6HR MAX TEMP:  60;

KEMMERER       PTCLDY    55  19  24 W18       30.01S
FORT BRIDGER   FAIR      62  22  21 W17G24    30.01F
ROCK SPRINGS   SUNNY     61  18  18 W17G24    29.98
6HR MIN TEMP:  51; 6HR MAX TEMP:  62;

DIXON          FAIR      60  19  20 S13G18    30.04F
RAWLINS        SUNNY     56  15  20 SW21G28   29.99S
6HR MIN TEMP:  50; 6HR MAX TEMP:  59;

SARATOGA       FAIR      52  18  25 SW17      30.03S
LARAMIE        SUNNY     54  16  22 SW17      30.01S
6HR MIN TEMP:  45; 6HR MAX TEMP:  55;

CHEYENNE       SUNNY     56  22  26 S15       29.99F
6HR MIN TEMP:  51; 6HR MAX TEMP:  57;

TORRINGTON     SUNNY     58  37  45 E18G25    29.94F
6HR MIN TEMP:  46; 6HR MAX TEMP:  60;

PINE BLUFFS    FAIR      59  25  27 S7        30.00F

$$



USA.gov is the U.S. government's official web portal to all federal, state and local government web resources and services.